Overview Statistics Trail Chart Weather Telemetry Raw packets
 

This is the latest recevied weather packets stored in our database for station/object N5CSU. If no packets are shown the sender has not sent any weather packets the latest 10 day(s).

<< 79 80 81 82 83 84 85 >>
Time Temp. Humidity Pressure Rain* Wind** Luminosity Snow
1788044992 37.78° C 34% 1013.7 hPa 0 mm - 11 W/m² -
1788044691 37.78° C 34% 1013.6 hPa 0 mm - 11 W/m² -
1788044386 37.78° C 34% 1013.7 hPa 0 mm - 21 W/m² -
1788044081 37.78° C 34% 1013.6 hPa 0 mm - 26 W/m² -
1788043778 37.78° C 34% 1013.7 hPa 0 mm - 17 W/m² -
1788043471 37.78° C 34% 1013.8 hPa 0 mm - 23 W/m² -
1788043167 38.33° C 34% 1013.8 hPa 0 mm - 13 W/m² -
1788042862 38.33° C 33% 1013.6 hPa 0 mm - 45 W/m² -
1788042561 38.33° C 32% 1013.9 hPa 0 mm - 83 W/m² -
1788042260 38.33° C 33% 1013.8 hPa 0 mm - 93 W/m² -
1788041956 38.33° C 32% 1014.1 hPa 0 mm - 128 W/m² -
1788041652 38.89° C 32% 1013.9 hPa 0 mm - 81 W/m² -
1788041346 38.33° C 33% 1013.8 hPa 0 mm - 13 W/m² -
1788041039 38.33° C 33% 1013.8 hPa 0 mm - 61 W/m² -
1788040738 38.33° C 33% 1014.1 hPa 0 mm - 18 W/m² -
1788040432 38.33° C 33% 1013.9 hPa 0 mm - 25 W/m² -
1788040129 38.33° C 33% 1014.1 hPa 0 mm - 41 W/m² -
1788039823 37.78° C 33% 1014 hPa 0 mm - 19 W/m² -
1788039517 37.22° C 33% 1014.2 hPa 0 mm - 18 W/m² -
1788039213 37.78° C 35% 1014.2 hPa 0 mm - 14 W/m² -
1788038908 37.22° C 35% 1014.3 hPa 0 mm - 15 W/m² -
1788038603 37.78° C 33% 1014.3 hPa 0 mm - 13 W/m² -
1788038302 38.33° C 32% 1014.4 hPa 0 mm - 14 W/m² -
1788037998 38.33° C 33% 1014.4 hPa 0 mm - 14 W/m² -
1788037693 38.33° C 33% 1014.5 hPa 0 mm - 17 W/m² -

* Rain latest hour (hover to see other rain measurements)
** Current wind speed in m/s (hover to see current wind gust speed)